Flag for Switzerland Weather past 2 weeks in Solothurn, Solothurn, Switzerland

Now
55 °F

Cool.


Feels Like: 53 °F
Forecast: 43 / 52 °F
Wind: 7 mph from South

Location: Grenchen

Current Time: Apr 28, 2015 at 12:16:08 AM

Latest Report: Apr 27, 2015 at 11:00 PM


Visibility: N/A

Pressure: 29.60 "Hg

Humidity: 92%

Dew point: 53 °F

Location of SolothurnLocation

Historic Weather in Solothurn — Graph

°F

Solothurn temperature yesterday

Maximum temperature yesterday: 68 °F (at 3:00 PM)
Minimum temperature yesterday: 48 °F (at 4:00 AM)
Average temperature yesterday: 58 °F

Past Weeks' High & Low Weather Summary

 TemperatureHumidityPressure
High73 °F (Apr 15, 5:00 PM)100% (Apr 17, 12:00 AM)30.51 "Hg (Apr 17, 12:00 AM)
Low36 °F (Apr 20, 7:00 AM)22% (Apr 22, 5:00 PM)29.47 "Hg (Apr 27, 3:00 PM)
Average53 °F68%30.10 "Hg
* Reported Apr 12 10:00 PM — Apr 27 10:00 PM, Solothurn, Weather by CustomWeather, © 2015

Note: Actual official high and low records may vary slightly from our data, if they occured in-between our weather recording intervals... More about our weather records

Advertising

Solothurn weather history for previous 24 hours

 ConditionsComfort  
Time TempWeatherWind HumidityBarometerVisibility
10:00 PM
Mon, Apr 27
58 °FCool.6 mph81%29.58 "HgN/A
9:00 PM61 °FCool.3 mph66%29.54 "HgN/A
8:00 PM62 °FCool.2 mph64%29.50 "HgN/A
7:00 PM62 °FMild.7 mph63%29.47 "HgN/A
6:00 PM61 °FCool.14 mph60%29.47 "HgN/A
5:00 PM67 °FMild.5 mph53%29.47 "HgN/A
4:00 PM67 °FMild.9 mph57%29.47 "HgN/A
3:00 PM68 °FMild.9 mph53%29.47 "HgN/A
2:00 PM67 °FMild.12 mph57%29.50 "HgN/A
1:00 PM65 °FMild.13 mph62%29.54 "HgN/A
12:00 PM64 °FMild.8 mph66%29.55 "HgN/A
11:00 AM62 °FCool.6 mph73%29.56 "HgN/A
10:00 AM58 °FCool.3 mph82%29.58 "HgN/A
9:00 AM56 °FCool.3 mph89%29.61 "HgN/A
8:00 AM52 °FCool.2 mph96%29.62 "HgN/A
7:00 AM50 °FCool.2 mph97%29.62 "HgN/A
6:00 AM50 °FCool.5 mph99%29.61 "HgN/A
5:00 AM49 °FCool.5 mph99%29.64 "HgN/A
4:00 AM48 °FCool.3 mph99%29.65 "HgN/A
3:00 AM50 °FCool.1 mph95%29.67 "HgN/A
2:00 AM51 °FCool.1 mph97%29.67 "HgN/A
1:00 AM51 °FCool.3 mph94%29.69 "HgN/A
12:00 AM53 °FCool.3 mph89%29.68 "HgN/A
Weather by CustomWeather, © 2015

See weather overviewHow to use our weather pages